DLH4NP EDDM-EDDF

Flight info

Callsign DLH4NP
Flight time 0h 35m
Altitude 24000
Route GIVMI1N/26R GIVMI Y101 ERNAS T161 DEBHI DEBHI1B
Aircraft A20N/M-SDE2E3FGHIRWXY/LB1

Departure

Time 2026-05-04 19:42
Airport Munich Airport (EDDM)

Arrival

Time 2026-05-04 20:17
Airport Frankfurt Main Airport (EDDF)
Time Latitude Longitude Altitude Speed Heading
2026-05-04 19:18 48.35062 11.79358 1464 ft 0 kts 263°
2026-05-04 19:27 48.35063 11.79369 1461 ft 2 kts 262°
2026-05-04 19:27 48.35065 11.79393 1468 ft 2 kts 263°
2026-05-04 19:27 48.35067 11.79418 1463 ft 2 kts 263°
2026-05-04 19:27 48.35069 11.79442 1462 ft 2 kts 264°
2026-05-04 19:28 48.35070 11.79467 1461 ft 2 kts 264°
2026-05-04 19:28 48.35075 11.79490 1462 ft 2 kts 239°
2026-05-04 19:28 48.35086 11.79509 1463 ft 2 kts 214°
2026-05-04 19:28 48.35096 11.79516 1460 ft 0 kts 183°
2026-05-04 19:29 48.35097 11.79516 1460 ft 0 kts 179°
2026-05-04 19:29 48.35099 11.79516 1462 ft 0 kts 174°
2026-05-04 19:30 48.35098 11.79516 1460 ft 0 kts 174°
2026-05-04 19:30 48.35097 11.79516 1460 ft 0 kts 174°
2026-05-04 19:32 48.35074 11.79527 1464 ft 8 kts 153°
2026-05-04 19:32 48.35052 11.79600 1470 ft 8 kts 80°
2026-05-04 19:33 48.35098 11.79650 1464 ft 11 kts
2026-05-04 19:33 48.35198 11.79637 1465 ft 17 kts 355°
2026-05-04 19:33 48.35335 11.79612 1464 ft 22 kts 354°
2026-05-04 19:33 48.35475 11.79586 1460 ft 20 kts 352°
2026-05-04 19:34 48.35610 11.79563 1468 ft 19 kts 354°
2026-05-04 19:34 48.35742 11.79541 1461 ft 19 kts 353°
2026-05-04 19:34 48.35857 11.79520 1465 ft 10 kts 351°
2026-05-04 19:34 48.35907 11.79510 1462 ft 7 kts 354°
2026-05-04 19:35 48.35955 11.79505 1470 ft 7 kts 355°
2026-05-04 19:35 48.35988 11.79500 1464 ft 0 kts 353°
2026-05-04 19:35 48.35990 11.79500 1464 ft 3 kts 353°
2026-05-04 19:35 48.36045 11.79490 1468 ft 10 kts 353°
2026-05-04 19:36 48.36109 11.79478 1471 ft 9 kts 353°
2026-05-04 19:36 48.36191 11.79479 1464 ft 13 kts 25°
2026-05-04 19:36 48.36223 11.79597 1461 ft 13 kts 84°
2026-05-04 19:36 48.36234 11.79737 1471 ft 16 kts 83°
2026-05-04 19:37 48.36250 11.79939 1465 ft 23 kts 83°
2026-05-04 19:37 48.36260 11.80142 1471 ft 17 kts 92°
2026-05-04 19:37 48.36276 11.80314 1465 ft 16 kts 81°
2026-05-04 19:37 48.36291 11.80483 1466 ft 16 kts 82°
2026-05-04 19:38 48.36304 11.80653 1470 ft 16 kts 84°
2026-05-04 19:38 48.36317 11.80822 1467 ft 16 kts 84°
2026-05-04 19:38 48.36332 11.80991 1470 ft 16 kts 79°
2026-05-04 19:38 48.36343 11.81158 1466 ft 16 kts 83°
2026-05-04 19:39 48.36356 11.81325 1463 ft 16 kts 83°
2026-05-04 19:39 48.36369 11.81499 1465 ft 17 kts 83°
2026-05-04 19:39 48.36383 11.81675 1461 ft 17 kts 83°
2026-05-04 19:39 48.36397 11.81850 1466 ft 17 kts 83°
2026-05-04 19:40 48.36395 11.82000 1461 ft 10 kts 48°
2026-05-04 19:40 48.36458 11.82007 1469 ft 11 kts 348°
2026-05-04 19:40 48.36550 11.81990 1465 ft 16 kts 353°
2026-05-04 19:40 48.36649 11.81950 1466 ft 14 kts 315°
2026-05-04 19:41 48.36665 11.81803 1462 ft 21 kts 264°
2026-05-04 19:41 48.36621 11.81211 1468 ft 90 kts 264°
2026-05-04 19:41 48.36527 11.79985 1463 ft 148 kts 263°
2026-05-04 19:41 48.36391 11.78374 1854 ft 158 kts 264°
2026-05-04 19:42 48.36266 11.76678 2343 ft 168 kts 265°
2026-05-04 19:42 48.36150 11.74876 2783 ft 183 kts 264°
2026-05-04 19:42 48.36006 11.72818 3117 ft 211 kts 264°
2026-05-04 19:42 48.35835 11.70533 3561 ft 227 kts 264°
2026-05-04 19:43 48.35904 11.68097 4193 ft 239 kts 284°
2026-05-04 19:43 48.36576 11.65718 4805 ft 258 kts 298°
2026-05-04 19:43 48.37526 11.63343 5464 ft 270 kts 301°
2026-05-04 19:43 48.38535 11.60940 6364 ft 273 kts 301°
2026-05-04 19:44 48.39550 11.58510 7305 ft 275 kts 301°
2026-05-04 19:44 48.40762 11.56258 8276 ft 281 kts 315°
2026-05-04 19:44 48.42389 11.54560 9221 ft 289 kts 329°
2026-05-04 19:44 48.44211 11.53223 10124 ft 295 kts 332°
2026-05-04 19:45 48.46146 11.51933 10619 ft 315 kts 333°
2026-05-04 19:45 48.48230 11.50581 11002 ft 337 kts 334°
2026-05-04 19:45 48.50440 11.49162 11595 ft 351 kts 334°
2026-05-04 19:45 48.52710 11.47708 12380 ft 357 kts 334°
2026-05-04 19:46 48.55015 11.46230 13213 ft 363 kts 334°
2026-05-04 19:46 48.57361 11.44723 14016 ft 369 kts 334°
2026-05-04 19:46 48.59731 11.43198 14785 ft 372 kts 334°
2026-05-04 19:46 48.62126 11.41655 15597 ft 376 kts 334°
2026-05-04 19:47 48.64537 11.40099 16408 ft 379 kts 334°
2026-05-04 19:47 48.66975 11.38523 17187 ft 383 kts 334°
2026-05-04 19:47 48.69418 11.36894 17989 ft 385 kts 330°
2026-05-04 19:47 48.71775 11.34941 18674 ft 388 kts 326°
2026-05-04 19:48 48.74069 11.32762 19313 ft 391 kts 323°
2026-05-04 19:48 48.76343 11.30449 19947 ft 395 kts 323°
2026-05-04 19:48 48.78616 11.28076 20591 ft 399 kts 322°
2026-05-04 19:48 48.80907 11.25677 21207 ft 403 kts 323°
2026-05-04 19:49 48.83227 11.23244 21756 ft 406 kts 321°
2026-05-04 19:49 48.85411 11.20536 21975 ft 406 kts 317°
2026-05-04 19:49 48.87547 11.17718 22003 ft 407 kts 315°
2026-05-04 19:49 48.89649 11.14843 22001 ft 407 kts 315°
2026-05-04 19:50 48.91738 11.11929 22001 ft 408 kts 314°
2026-05-04 19:50 48.93809 11.09018 22009 ft 408 kts 314°
2026-05-04 19:50 48.95893 11.06083 22011 ft 408 kts 314°
2026-05-04 19:50 48.97972 11.03156 22022 ft 408 kts 314°
2026-05-04 19:51 49.00058 11.00220 22021 ft 407 kts 314°
2026-05-04 19:51 49.02135 10.97298 22015 ft 407 kts 314°
2026-05-04 19:51 49.04214 10.94375 22038 ft 406 kts 314°
2026-05-04 19:51 49.06288 10.91456 22038 ft 406 kts 314°
2026-05-04 19:52 49.08339 10.88568 22037 ft 406 kts 314°
2026-05-04 19:52 49.10417 10.85635 22034 ft 406 kts 314°
2026-05-04 19:52 49.12488 10.82707 22055 ft 406 kts 314°
2026-05-04 19:52 49.14564 10.79770 22054 ft 406 kts 314°
2026-05-04 19:53 49.16638 10.76843 22055 ft 406 kts 314°
2026-05-04 19:53 49.18712 10.73902 22056 ft 406 kts 314°
2026-05-04 19:53 49.20729 10.70887 21977 ft 406 kts 312°
2026-05-04 19:53 49.22699 10.67804 21725 ft 400 kts 311°
2026-05-04 19:54 49.24609 10.64791 21456 ft 389 kts 311°
2026-05-04 19:54 49.26468 10.61854 21200 ft 379 kts 311°
2026-05-04 19:54 49.28284 10.58984 20941 ft 370 kts 310°
2026-05-04 19:54 49.30066 10.56166 20688 ft 368 kts 310°
2026-05-04 19:55 49.31846 10.53347 20440 ft 367 kts 310°
2026-05-04 19:55 49.33618 10.50539 20195 ft 366 kts 310°
2026-05-04 19:55 49.35378 10.47720 19949 ft 364 kts 308°
2026-05-04 19:55 49.36957 10.44704 19707 ft 361 kts 303°
2026-05-04 19:56 49.38412 10.41586 19470 ft 359 kts 302°
2026-05-04 19:56 49.39839 10.38455 19235 ft 358 kts 302°
2026-05-04 19:56 49.41262 10.35324 18991 ft 357 kts 302°
2026-05-04 19:56 49.42681 10.32203 18745 ft 355 kts 302°
2026-05-04 19:57 49.44093 10.29096 18537 ft 355 kts 302°
2026-05-04 19:57 49.45507 10.25985 18310 ft 354 kts 302°
2026-05-04 19:57 49.46439 10.23932 18118 ft 354 kts 302°
2026-05-04 19:57 49.48318 10.19789 17778 ft 352 kts 302°
2026-05-04 19:58 49.49243 10.17750 17605 ft 351 kts 302°
2026-05-04 19:58 49.50637 10.14672 17333 ft 350 kts 302°
2026-05-04 19:58 49.52025 10.11603 17078 ft 348 kts 302°
2026-05-04 19:58 49.53404 10.08550 16824 ft 347 kts 302°
2026-05-04 19:59 49.54780 10.05503 16567 ft 345 kts 302°
2026-05-04 19:59 49.56144 10.02477 16312 ft 344 kts 302°
2026-05-04 19:59 49.57507 9.99452 16058 ft 343 kts 302°
2026-05-04 19:59 49.58863 9.96438 15807 ft 341 kts 302°
2026-05-04 20:00 49.60212 9.93433 15553 ft 340 kts 302°
2026-05-04 20:00 49.61555 9.90442 15318 ft 339 kts 302°
2026-05-04 20:00 49.63328 9.86485 14993 ft 338 kts 302°
2026-05-04 20:00 49.64228 9.84476 14820 ft 337 kts 301°
2026-05-04 20:01 49.65557 9.81504 14586 ft 336 kts 301°
2026-05-04 20:01 49.66877 9.78548 14353 ft 334 kts 301°
2026-05-04 20:01 49.68197 9.75598 14111 ft 333 kts 302°
2026-05-04 20:01 49.69816 9.73027 13884 ft 338 kts 322°
2026-05-04 20:02 49.71885 9.71291 13680 ft 340 kts 332°
2026-05-04 20:02 49.74047 9.69798 13409 ft 340 kts 334°
2026-05-04 20:02 49.76184 9.68352 13098 ft 339 kts 334°
2026-05-04 20:02 49.78337 9.66895 12787 ft 337 kts 334°
2026-05-04 20:03 49.80484 9.65441 12364 ft 336 kts 334°
2026-05-04 20:03 49.82621 9.63999 11862 ft 334 kts 334°
2026-05-04 20:03 49.84749 9.62559 11359 ft 332 kts 334°
2026-05-04 20:03 49.86860 9.61128 10864 ft 331 kts 334°
2026-05-04 20:04 49.88963 9.59698 10380 ft 329 kts 334°
2026-05-04 20:04 49.91051 9.58279 9898 ft 327 kts 334°
2026-05-04 20:04 49.93123 9.56866 9456 ft 322 kts 334°
2026-05-04 20:04 49.95057 9.55279 9175 ft 307 kts 319°
2026-05-04 20:05 49.96512 9.52971 8911 ft 294 kts 306°
2026-05-04 20:05 49.97743 9.50498 8649 ft 287 kts 304°
2026-05-04 20:05 49.98935 9.48029 8393 ft 285 kts 304°
2026-05-04 20:05 50.00121 9.45564 8136 ft 284 kts 304°
2026-05-04 20:06 50.01304 9.43103 7876 ft 284 kts 304°
2026-05-04 20:06 50.02478 9.40647 7581 ft 283 kts 304°
2026-05-04 20:06 50.03647 9.38191 7279 ft 282 kts 304°
2026-05-04 20:06 50.04810 9.35741 6991 ft 281 kts 304°
2026-05-04 20:07 50.05961 9.33290 6705 ft 281 kts 304°
2026-05-04 20:07 50.07107 9.30839 6404 ft 280 kts 304°
2026-05-04 20:07 50.08248 9.28386 6106 ft 279 kts 304°
2026-05-04 20:07 50.09379 9.25933 5861 ft 278 kts 304°
2026-05-04 20:08 50.10493 9.23487 5596 ft 277 kts 304°
2026-05-04 20:08 50.11595 9.21042 5339 ft 275 kts 304°
2026-05-04 20:08 50.12682 9.18603 5094 ft 272 kts 304°
2026-05-04 20:08 50.13733 9.16232 4978 ft 260 kts 303°
2026-05-04 20:09 50.14565 9.13730 4982 ft 264 kts 284°
2026-05-04 20:09 50.14885 9.10882 4984 ft 269 kts 275°
2026-05-04 20:09 50.15069 9.07976 4981 ft 270 kts 274°
2026-05-04 20:09 50.15238 9.05066 4980 ft 270 kts 274°
2026-05-04 20:10 50.15404 9.02150 4984 ft 270 kts 274°
2026-05-04 20:10 50.15533 8.99242 4978 ft 268 kts 265°
2026-05-04 20:10 50.15075 8.96598 4977 ft 247 kts 245°
2026-05-04 20:10 50.14374 8.94202 4978 ft 235 kts 245°
2026-05-04 20:11 50.13772 8.91916 4989 ft 223 kts 248°
2026-05-04 20:11 50.13257 8.89757 4992 ft 203 kts 248°
2026-05-04 20:11 50.12787 8.87761 4981 ft 192 kts 248°
2026-05-04 20:11 50.12327 8.85807 4979 ft 192 kts 248°
2026-05-04 20:12 50.11866 8.83862 4829 ft 191 kts 248°
2026-05-04 20:12 50.11401 8.81920 4537 ft 191 kts 248°
2026-05-04 20:12 50.10938 8.79982 4211 ft 191 kts 249°
2026-05-04 20:12 50.10476 8.78047 3905 ft 190 kts 249°
2026-05-04 20:13 50.10018 8.76125 3616 ft 190 kts 249°
2026-05-04 20:13 50.09559 8.74204 3359 ft 189 kts 249°
2026-05-04 20:13 50.09101 8.72284 3087 ft 188 kts 250°
2026-05-04 20:13 50.08645 8.70374 2815 ft 188 kts 250°
2026-05-04 20:14 50.08188 8.68460 2550 ft 188 kts 250°
2026-05-04 20:14 50.07732 8.66554 2285 ft 187 kts 250°
2026-05-04 20:14 50.07282 8.64670 2021 ft 187 kts 251°
2026-05-04 20:14 50.06831 8.62779 1748 ft 184 kts 251°
2026-05-04 20:15 50.06401 8.60982 1485 ft 172 kts 251°
2026-05-04 20:15 50.06003 8.59316 1271 ft 157 kts 251°
2026-05-04 20:15 50.05638 8.57790 1036 ft 143 kts 251°
2026-05-04 20:15 50.05307 8.56399 833 ft 133 kts 251°
2026-05-04 20:16 50.04983 8.55051 629 ft 134 kts 250°
2026-05-04 20:16 50.04662 8.53714 460 ft 130 kts 251°
2026-05-04 20:16 50.04358 8.52453 357 ft 116 kts 253°
2026-05-04 20:16 50.04127 8.51471 354 ft 72 kts 249°
2026-05-04 20:17 50.04008 8.51073 357 ft 25 kts 234°
2026-05-04 20:17 50.03905 8.50918 362 ft 11 kts 218°
2026-05-04 20:17 50.03846 8.50842 358 ft 11 kts 210°
2026-05-04 20:17 50.03815 8.50835 357 ft 0 kts 168°
2026-05-04 20:18 50.03808 8.50837 357 ft 8 kts 168°
2026-05-04 20:19 50.03781 8.50933 362 ft 15 kts 64°
2026-05-04 20:19 50.03836 8.51155 356 ft 21 kts 70°
2026-05-04 20:19 50.03888 8.51370 362 ft 21 kts 68°
2026-05-04 20:19 50.03940 8.51590 360 ft 22 kts 68°
2026-05-04 20:20 50.03994 8.51815 357 ft 22 kts 69°
2026-05-04 20:20 50.04048 8.52046 356 ft 23 kts 69°
2026-05-04 20:20 50.04105 8.52281 362 ft 24 kts 70°
2026-05-04 20:20 50.04163 8.52521 360 ft 24 kts 69°
2026-05-04 20:21 50.04222 8.52767 355 ft 25 kts 70°
2026-05-04 20:21 50.04281 8.53010 353 ft 21 kts 70°
2026-05-04 20:21 50.04387 8.53453 361 ft 22 kts 72°
2026-05-04 20:22 50.04406 8.53694 353 ft 23 kts 84°
2026-05-04 20:22 50.04423 8.53940 353 ft 23 kts 83°
2026-05-04 20:22 50.04440 8.54182 353 ft 18 kts 84°
2026-05-04 20:22 50.04454 8.54380 353 ft 19 kts 85°
2026-05-04 20:23 50.04435 8.54578 361 ft 19 kts 113°
2026-05-04 20:23 50.04356 8.54732 353 ft 15 kts 143°
2026-05-04 20:23 50.04316 8.54770 356 ft 4 kts 154°
2026-05-04 20:23 50.04291 8.54787 359 ft 4 kts 158°
2026-05-04 20:24 50.04263 8.54804 359 ft 5 kts 159°
2026-05-04 20:24 50.04206 8.54832 356 ft 14 kts 162°
2026-05-04 20:24 50.04085 8.54902 355 ft 21 kts 160°
2026-05-04 20:24 50.03959 8.54975 357 ft 19 kts 160°
2026-05-04 20:25 50.03850 8.55068 361 ft 16 kts 111°
2026-05-04 20:25 50.03877 8.55233 356 ft 16 kts 69°
2026-05-04 20:25 50.03918 8.55405 356 ft 17 kts 69°
2026-05-04 20:25 50.03960 8.55576 357 ft 17 kts 69°
2026-05-04 20:26 50.04003 8.55756 361 ft 18 kts 70°
2026-05-04 20:26 50.04047 8.55942 359 ft 19 kts 69°
2026-05-04 20:26 50.04092 8.56133 355 ft 19 kts 69°
2026-05-04 20:26 50.04139 8.56328 354 ft 20 kts 69°
2026-05-04 20:27 50.04184 8.56520 360 ft 18 kts 70°
2026-05-04 20:27 50.04230 8.56708 357 ft 19 kts 70°
2026-05-04 20:27 50.04276 8.56902 359 ft 19 kts 70°
2026-05-04 20:27 50.04323 8.57100 360 ft 20 kts 69°
2026-05-04 20:28 50.04371 8.57304 362 ft 20 kts 69°
2026-05-04 20:28 50.04421 8.57512 356 ft 21 kts 69°
2026-05-04 20:28 50.04472 8.57725 363 ft 21 kts 68°
2026-05-04 20:28 50.04503 8.57852 362 ft 5 kts 70°
2026-05-04 20:29 50.04518 8.57916 360 ft 12 kts 70°
2026-05-04 20:29 50.04571 8.58038 356 ft 14 kts 37°
2026-05-04 20:29 50.04637 8.58117 358 ft 0 kts 40°
2026-05-04 20:29 50.04651 8.58113 356 ft 2 kts 307°
2026-05-04 20:30 50.04655 8.58002 358 ft 16 kts 303°
2026-05-04 20:30 50.04753 8.57960 361 ft 14 kts 21°
2026-05-04 20:30 50.04803 8.58063 361 ft 12 kts 70°
2026-05-04 20:30 50.04835 8.58196 361 ft 16 kts 70°
2026-05-04 20:31 50.04880 8.58389 358 ft 20 kts 70°
2026-05-04 20:31 50.04928 8.58586 356 ft 18 kts 68°
2026-05-04 20:31 50.04954 8.58714 358 ft 8 kts 85°
2026-05-04 20:31 50.04926 8.58781 356 ft 8 kts 155°
2026-05-04 20:32 50.04895 8.58799 359 ft 0 kts 159°